EHI
0 0 0 0 0 0 0 0 0 0 0 0 0 0 0 0 0 0 0 0 0 0 1 0 0 0 0 0 0 0 0 0 0 0 0 0 0 0 0 0 0 0 0
0 0 0 0 0 0 0 0 0 0 0 0 0 0 0 0 0 0 0 0 0 0 1 0 0 0 0 0 0 0 0 0 0 0 0 0 0 0 0 0 0 0 0
0 0 0 0 0 0 0 0 0 0 0 0 0 0 0 0 0 0 0 0 0 0 0 0 0 0 0 0 0 0 0 0 0 0 0 0 0 0 0 0 0 0 0
0 0 0 0 0 0 0 0 0 0 0 0 0 0 0 0 0 0 0 0 0 0 0 0 0 0 0 0 0 0 0 0 0 0 0 0 0 0 0 0 0 0 0
0 0 0 0 0 0 0 0 0 0 0 0 0 0 0 0 0 0 0 0 0 0 0 0 0 0 0 0 0 0 0 0 0 0 0 0 0 0 0 0 0 0 0
0 0 0 0 0 0 0 0 0 0 0 0 0 0 0 0 0 0 0 0 0 0 0 0 0 0 0 0 0 0 0 0 0 0 0 0 0 0 0 0 0 0 0
0 0 0 0 0 0 0 0 0 0 0 0 0 0 0 0 0 0 0 0 0 0 0 0 0 0 0 0 0 0 0 0 0 0 0 0 0 0 0 0 0 0 0
0 0 0 0 0 0 0 0 0 0 0 0 0 0 0 0 0 0 0 0 0 0 0 0 0 0 0 0 0 0 0 0 0 0 0 0 0 0 0 0 0 0 0
0 0 0 0 0 0 0 0 0 0 0 0 0 0 0 0 0 0 0 0 0 0 0 0 0 0 0 0 0 0 0 0 0 0 0 0 0 0 0 0 0 0 0
0 0 0 0 0 0 0 0 0 0 0 0 0 0 0 0 0 0 0 0 0 0 0 0 0 0 0 0 0 0 0 0 0 0 0 0 0 0 0 0 0 0 0
0 0 0 0 0 0 0 0 0 0 0 0 0 0 0 0 0 0 0 0 0 0 0 0 0 0 0 0 0 0 0 0 0 0 0 0 0 0 0 0 0 0 0
0 0 0 0 0 0 0 0 0 0 0 0 0 0 0 0 0 0 0 0 0 0 0 0 0 0 0 0 0 0 0 0 0 0 0 0 0 0 0 0 0 0 0
0 0 0 0 0 0 0 0 0 0 0 0 0 0 0 0 0 0 0 0 0 0 0 0 0 0 0 0 0 0 0 0 0 0 0 0 0 0 0 0 0 0 0
0 0 0 0 0 0 0 0 0 0 0 0 0 0 0 0 0 0 0 0 0 0 0 0 0 0 0 0 0 0 0 0 0 0 0 0 0 0 0 0 0 0 0
0 0 0 0 0 0 0 0 0 0 0 0 0 0 0 0 0 0 0 0 0 0 0 0 0 0 0 0 0 0 0 0 0 0 0 0 0 0 0 0 0 0 0
0 0 0 0 0 0 0 0 0 0 0 0 0 0 0 0 0 0 0 0 0 0 0 0 0 0 0 0 0 0 0 0 0 0 0 0 0 0 0 0 0 0 0
0 0 0 0 0 0 0 0 0 0 0 0 0 0 0 0 0 0 0 0 0 0 0 0 0 0 0 0 0 0 0 0 0 0 0 0 0 0 0 0 0 0 0
0 0 0 0 0 0 0 0 0 0 0 0 0 0 0 0 0 0 0 0 0 0 0 0 0 0 0 0 0 0 0 0 0 0 0 0 0 0 0 0 0 0 0
0 0 0 0 0 0 0 0 0 0 0 0 0 0 0 0 0 0 0 0 0 0 0 0 0 0 0 0 0 0 0 0 0 0 0 0 0 0 0 0 0 0 0
0 0 0 0 0 0 0 0 0 0 0 0 0 0 0 0 0 0 0 0 0 0 0 0 0 0 0 0 0 0 0 0 0 0 0 0 0 0 0 0 0 0 0
0 0 0 0 0 0 0 0 0 0 0 0 0 0 0 0 0 0 0 0 0 0 0 0 0 0 0 0 0 0 0 0 0 0 0 0 0 0 0 0 0 0 0
0 0 0 0 0 0 0 0 0 0 0 0 0 0 0 0 0 0 0 0 0 0 0 0 0 0 0 0 0 0 0 0 0 0 0 0 0 0 0 0 0 0 0
0 0 0 0 0 0 0 0 0 0 0 0 0 0 0 0 0 0 0 0 0 0 0 0 0 0 0 0 0 0 0 0 0 0 0 0 0 0 0 0 0 0 0
0 0 0 0 0 0 0 0 0 0 0 0 0 0 0 0 0 0 0 0 0 0 0 0 0 0 0 0 0 0 0 0 0 0 0 0 0 0 0 0 0 0 0
0 0 0 0 0 0 0 0 0 0 0 0 0 0 0 0 0 0 0 0 0 0 0 0 0 0 0 0 0 0 0 0 0 0 0 0 0 0 0 0 0 0 0
0 0 0 0 0 0 0 0 0 0 0 0 0 0 0 0 0 0 0 0 0 0 0 0 0 0 0 0 0 0 0 0 0 0 0 0 0 0 0 0 0 0 0
Wind_Speed
5 4 4 4 4 3 4 4 4 4 4 5 5 5 5 5 5 5 4 10 11 12 12 12 11 10 10 9 9 8 8 8 8 7 7 7 7 7 7 7 7 7 7
6 6 5 5 5 4 4 5 5 5 4 4 5 5 5 5 5 6 5 7 11 12 13 13 13 12 11 11 10 9 8 8 7 7 7 6 6 5 5 5 5 5 5
7 7 6 6 6 5 6 4 5 4 4 4 5 5 4 5 5 6 6 4 6 11 13 15 14 14 13 13 12 11 10 8 8 7 6 6 5 4 4 4 3 3 3
9 7 6 6 6 5 5 5 4 4 4 4 3 3 3 4 6 6 6 5 5 5 9 14 14 15 15 14 13 12 11 10 9 8 7 6 5 4 3 3 2 1 1
8 7 6 6 6 5 5 6 5 4 4 4 4 4 3 4 5 6 6 7 6 6 6 10 13 14 14 15 15 14 13 11 10 9 7 6 5 4 3 3 2 1 1
7 7 5 6 6 5 5 5 5 5 4 4 4 4 3 4 3 5 7 6 6 7 7 7 7 9 13 15 16 15 14 13 11 10 9 7 6 5 5 4 3 3 3
7 6 5 6 6 6 7 7 5 5 5 3 2 2 3 3 5 5 5 5 7 8 7 8 6 5 6 14 16 16 15 14 13 11 10 9 8 7 6 5 5 5 5
6 6 7 6 6 6 7 7 6 4 4 5 4 2 3 4 4 5 5 6 7 6 8 9 7 7 6 5 9 14 15 15 14 13 11 10 9 8 7 6 6 6 6
5 6 6 6 6 6 7 8 8 8 6 5 5 5 4 6 3 3 4 5 5 5 6 6 8 8 7 6 5 10 12 14 14 13 12 11 10 8 8 7 7 7 8
4 4 5 6 6 6 7 7 8 7 7 6 4 5 4 4 4 3 3 3 4 5 6 6 7 7 7 6 8 11 12 12 14 13 12 11 10 9 9 9 9 9 9
3 3 4 4 5 5 6 7 7 7 7 7 6 4 5 3 3 4 5 3 2 3 4 4 4 4 6 6 6 9 13 14 14 13 12 11 10 9 9 9 9 9 9
2 3 3 3 4 4 5 6 6 6 6 7 6 5 5 4 5 6 8 5 3 2 1 1 2 2 2 3 6 11 13 14 14 13 12 11 10 9 9 9 9 10 11
1 3 2 2 3 3 4 4 4 4 5 6 6 6 6 5 3 3 5 4 3 1 0 0 0 0 1 1 3 8 10 12 12 11 11 10 8 7 8 9 10 12 13
1 2 2 2 2 2 2 2 2 3 3 4 4 4 4 4 3 3 3 3 3 2 2 3 0 0 1 1 3 7 5 9 9 9 9 8 8 8 9 10 12 13 14
2 3 3 3 3 3 3 2 1 1 1 1 1 1 1 0 0 1 1 2 3 4 4 3 2 1 1 2 4 3 3 7 8 7 8 8 9 10 11 12 13 14 14
4 4 4 4 4 5 4 4 3 3 4 4 3 4 3 2 2 2 1 0 1 2 2 1 1 1 1 2 4 3 2 5 5 7 8 9 10 11 12 12 13 14 14
5 5 5 6 6 6 6 5 5 5 6 6 5 6 6 5 3 3 3 2 2 0 1 1 2 2 2 2 2 2 2 1 1 6 7 9 11 11 12 13 13 14 14
6 6 6 7 7 7 7 7 7 7 7 7 6 6 6 5 5 4 4 4 3 2 1 2 1 1 2 1 1 1 1 1 1 5 8 10 11 11 12 12 13 13 13
7 7 7 8 7 7 8 8 8 8 8 8 7 7 6 6 6 5 5 4 3 3 3 3 2 2 1 1 1 1 0 0 2 4 7 9 10 11 12 12 12 13 13
7 7 7 7 7 7 8 8 8 8 8 8 8 7 6 6 5 5 5 5 4 4 4 3 2 2 1 1 1 1 1 1 2 2 4 6 8 10 11 12 13 13 13
7 7 7 7 6 6 7 7 8 8 8 8 8 7 7 8 8 6 5 4 3 3 3 3 2 2 1 1 1 1 1 1 2 1 2 2 3 4 5 9 11 13 13
7 7 7 7 7 7 12 13 9 7 7 7 7 6 6 8 9 10 9 7 5 3 2 1 1 1 1 1 0 0 0 1 3 2 2 4 3 4 4 4 10 13 13
6 7 7 7 7 9 13 13 13 7 6 6 5 4 4 5 7 5 7 9 8 7 4 2 1 1 1 1 1 1 1 2 3 3 2 4 2 4 4 6 12 13 12
5 5 6 6 5 8 12 12 12 7 5 5 4 4 4 3 3 4 4 4 4 4 4 2 1 2 3 3 3 3 3 3 3 3 2 3 3 3 4 4 10 10 9
5 5 4 5 5 5 9 10 9 4 4 4 3 3 3 2 4 5 3 3 3 4 5 5 4 3 5 6 3 1 1 1 3 3 1 2 3 4 4 3 4 7 8
4 4 4 3 4 3 7 8 8 3 3 2 3 3 4 2 4 4 2 1 2 3 3 4 5 6 5 5 6 1 1 2 2 3 2 1 2 3 5 3 2 3 5
Wind_Direction
181 182 187 188 190 186 191 200 209 220 234 243 244 238 227 205 194 190 194 190 182 179 178 178 179 177 173 168 162 157 152 146 140 135 130 122 115 108 101 94 88 82 76
185 186 191 196 199 199 200 205 211 217 226 229 237 233 224 205 196 190 193 193 190 186 187 189 189 188 186 181 176 171 168 163 157 151 144 137 131 123 115 105 94 83 75
190 190 194 199 205 203 203 209 219 222 231 229 232 226 216 203 197 195 193 194 195 195 194 197 197 197 196 193 188 183 181 177 172 167 162 157 151 143 133 123 108 89 72
192 193 198 203 202 199 200 206 210 216 228 229 229 228 215 202 202 202 197 198 197 199 204 206 204 203 203 202 198 193 189 187 185 183 181 177 176 173 169 163 151 122 53
197 197 204 204 196 198 201 207 204 200 215 224 227 229 224 213 206 203 204 205 204 202 202 212 209 207 207 208 207 202 197 195 195 195 195 194 196 199 205 209 219 251 285
204 203 207 205 196 200 206 205 206 206 207 208 219 230 236 234 221 211 210 209 210 209 206 208 207 210 208 211 214 210 204 200 201 203 205 206 210 216 226 233 242 261 282
208 207 212 208 204 209 212 208 206 211 216 181 184 260 280 250 236 227 214 211 214 212 207 208 204 199 208 212 214 215 212 207 206 208 211 214 219 226 234 243 254 267 283
217 214 213 214 211 215 217 214 207 207 209 181 176 191 271 294 260 231 216 217 218 211 212 211 207 202 199 199 212 214 215 213 212 213 216 220 224 231 239 248 260 271 280
230 227 223 220 218 216 221 220 212 209 217 207 191 176 193 231 261 275 237 228 218 213 218 212 210 208 202 198 201 212 210 215 218 221 222 224 229 236 247 256 266 276 284
241 239 234 229 226 223 224 225 219 216 213 216 214 219 211 183 194 259 274 247 227 221 219 216 212 212 207 200 201 202 202 208 219 227 232 233 234 241 250 261 273 281 288
259 256 246 241 239 235 234 233 226 221 217 218 208 203 223 228 212 221 259 261 260 240 229 226 219 213 210 204 199 201 201 207 218 229 236 242 246 251 261 271 281 289 294
278 282 270 256 251 247 245 242 237 230 227 226 220 204 196 199 206 212 236 237 237 253 257 235 236 231 218 206 203 200 203 208 217 227 236 246 254 262 274 282 289 296 297
315 313 303 281 271 264 258 251 241 239 234 231 229 226 223 226 207 206 228 236 231 234 301 262 236 216 190 180 190 190 202 208 217 227 237 245 256 274 287 291 293 294 295
310 327 336 335 320 304 288 266 248 248 245 241 242 236 231 233 224 214 210 210 235 237 233 232 127 168 134 134 158 164 192 201 211 226 240 254 270 282 284 284 287 287 288
6 10 14 19 13 8 359 351 353 321 325 334 312 288 242 346 189 216 208 199 213 240 243 207 181 103 140 138 166 152 152 193 203 220 240 259 270 276 276 275 279 280 281
29 32 32 34 33 31 33 44 43 37 56 48 47 60 55 45 43 38 38 39 224 230 249 98 95 61 89 126 151 121 141 183 214 236 251 261 268 271 274 278 278 277 279
39 42 42 46 44 40 38 50 53 54 65 61 56 65 62 56 56 46 47 48 40 67 209 85 69 59 72 97 106 114 133 159 245 260 268 272 274 276 276 277 277 278 279
46 47 50 54 52 48 47 54 58 56 64 66 64 70 69 69 64 53 55 54 48 39 107 125 90 77 79 119 106 118 143 187 229 265 273 276 279 280 281 282 282 282 282
54 53 56 58 56 55 56 58 63 64 64 63 62 68 68 72 69 61 59 56 48 46 55 96 84 60 63 75 84 69 57 342 270 275 279 283 288 289 290 290 289 289 288
62 59 60 62 62 62 63 66 69 69 69 66 63 65 64 69 76 73 66 58 56 55 57 71 71 59 54 56 66 40 337 326 291 290 293 297 299 301 301 299 297 296 293
64 63 65 66 68 69 69 73 73 75 74 71 63 57 62 74 83 82 81 70 64 60 56 58 59 48 34 32 21 9 329 330 298 292 304 293 297 290 293 295 295 290 285
65 64 62 64 65 70 79 82 83 74 72 71 65 54 53 52 58 62 71 72 73 74 75 72 58 50 353 337 355 2 348 3 309 299 315 289 274 274 272 262 279 285 285
73 68 63 63 68 76 80 84 85 81 77 72 66 58 55 53 54 45 48 45 38 41 56 120 138 201 232 232 208 256 245 231 245 268 300 284 272 273 269 277 291 291 291
79 76 68 61 63 76 84 87 88 76 72 67 66 69 65 37 56 69 59 42 24 13 16 62 185 225 230 231 215 214 226 250 261 258 217 271 289 277 283 281 292 292 295
90 82 75 66 61 68 84 90 89 73 68 58 52 59 71 33 31 58 66 39 13 347 355 4 350 324 308 311 295 222 269 299 301 286 225 246 293 300 289 282 291 305 313
106 98 82 67 64 54 80 88 92 84 78 58 39 23 19 21 11 35 94 58 339 309 323 343 352 353 353 344 348 359 195 205 257 287 274 257 290 329 314 289 263 271 287